[[{"header":{"parameterUnit":"m.s-1","parameterCategory":1,"la1":30.2991,"la2":30.254,"lo1":-89.0895,"lo2":-89.0444,"dy":0.0017,"dx":0.0017,"nx":28,"ny":28,"refTime":"2025-11-04T09:00:00:Z","depth":0,"parameterNumber":2,"parameterNumberName":"U-component_of_WINDS"},"data":[0,0,0,0,0,0,0,0,0,0,0,0,0,0,0,0,0,0,0,0,0,0,0,0,0,0,0,0,0,0,0,0,0,0,0,0,0,0,0,0,0,0,0,0,0,0,0,0,0,0,0,0,0,0,0,0,0,0,-3.0136,-3.0136,0,-3.0115,-3.0114,-3.0114,-3.001,-3.0008,-3.0005,-3.0003,-2.9984,-2.9985,-2.9987,0,0,0,0,0,0,0,0,0,0,0,0,0,-3.0091,-3.0093,-3.0136,-3.0136,-3.0136,-3.0115,-3.0114,-3.0114,-3.0011,-3.0008,-3.0005,-3.0002,-2.9983,-2.9985,-2.9987,0,0,0,0,0,0,0,0,0,0,0,0,0,-3.0095,-3.0093,-3.0136,-3.0081,-3.0076,-3.0115,-3.0114,-3.0114,-3.0011,-3.0008,-3.0004,-3.0,-2.9982,-2.9985,-2.9988,-3.0078,0,0,-2.9996,-2.9997,0,0,0,0,0,0,0,0,-3.0095,-3.0096,-3.009,-3.0085,-3.008,-3.0061,-3.0091,-3.0102,-3.0012,-3.0036,-3.0003,-2.9999,-3.0013,-3.0013,-3.0017,-3.0077,-3.0076,-2.9996,-2.9998,-2.9999,-3.0,0,0,0,0,0,0,0,-3.0094,-3.0097,-3.0128,-3.009,-3.0084,-3.0059,-3.0056,-3.0093,-3.0046,-3.0034,-3.0026,-3.0025,-3.0009,-3.0015,-3.0016,-3.0076,-2.9996,-2.9998,-3.0,-3.0001,-3.0212,-3.0216,0,0,0,0,0,0,-3.0102,-3.0097,-3.0128,-3.0127,-3.0078,-3.0063,-3.0059,-3.0071,-3.0045,-3.0037,-3.0028,-3.002,-3.0012,-3.0013,-3.0015,-3.012,-2.9999,-3.0001,-3.0003,-3.0208,-3.0213,-3.0217,0,0,0,0,0,0,-3.0101,-3.0105,-3.0129,-3.011,-3.0111,-3.0068,-3.0082,-3.0073,-3.0077,-3.004,-3.0032,-3.0042,-3.0009,-3.0011,-3.0063,-3.0118,-3.0003,-3.0005,-3.0203,-3.021,-3.0215,-3.0331,0,0,0,0,0,0,-3.01,-3.0106,-3.0138,-3.0112,-3.0113,-3.0178,-3.0085,-3.0075,-3.0082,-3.0072,-3.0051,-3.0044,-3.0006,-3.006,-3.0066,-3.0119,-3.0007,-3.0198,-3.0206,-3.0213,-3.0322,-3.034,-3.0356,0,0,0,0,0,-3.0099,-3.0172,-3.0141,-3.0145,-3.0153,-3.0181,-3.0182,-3.0135,-3.0087,-3.012,-3.0097,-3.0045,-3.0111,-3.0066,-3.0072,-3.0127,-3.0195,-3.0204,-3.0213,-3.0315,-3.0337,-3.0355,0,0,0,0,0,0,-3.0207,-3.0167,-3.0132,-3.0199,-3.0194,-3.0163,-3.0204,-3.016,-3.017,-3.0159,-3.0103,-3.0099,-3.0161,-3.0149,-3.01,-3.0215,-3.0144,-3.0155,-3.022,-3.024,-3.0257,-3.0259,-3.0009,0,0,0,0,0,-3.0238,-3.0264,-3.0228,-3.029,-3.029,-3.0248,-3.0258,-3.0223,-3.0216,-3.0214,-3.0194,-3.019,-3.021,-3.0225,-3.0241,-3.032,-3.0315,-3.0361,-3.0378,-3.0392,-3.0402,-3.0445,-3.0466,-3.0247,-3.0247,-3.0247,0,0,-3.0304,-3.0285,-3.0305,-3.0312,-3.0304,-3.0333,-3.0247,-3.028,-3.0301,-3.0219,-3.0268,-3.0254,-3.0246,-3.0313,-3.0341,-3.0305,-3.0462,-3.0403,-3.0415,-3.0417,-3.0457,-3.0477,-3.0496,-3.0253,-3.0252,-3.0251,0,0,-3.0438,-3.0426,-3.0477,-3.0471,-3.046,-3.0432,-3.0445,-3.0421,-3.0409,-3.0456,-3.0396,-3.0421,-3.0456,-3.0454,-3.0457,-3.0593,-3.0546,-3.06,-3.0688,-3.0731,-3.0748,-3.0763,-3.0813,-3.0831,-3.061,-3.0611,-3.0611,0,-3.052,-3.056,-3.0509,-3.0547,-3.0553,-3.048,-3.0532,-3.0529,-3.0525,-3.0532,-3.0491,-3.0535,-3.0524,-3.0591,-3.0624,-3.0629,-3.0643,-3.0602,-3.0749,-3.0764,-3.0777,-3.0824,-3.0843,-3.0617,-3.0616,-3.0616,-3.0615,0,-3.0663,-3.0692,-3.0735,-3.0732,-3.0743,-3.0788,-3.0746,-3.0763,-3.0728,-3.0705,-3.0756,-3.0741,-3.0754,-3.0767,-3.0733,-3.0829,-3.0807,-3.0759,-3.0687,-3.0806,-3.0849,-3.0866,-3.0627,-3.0624,-3.0622,-3.0621,0,0,-3.0863,-3.0833,-3.085,-3.0849,-3.0833,-3.0854,-3.0898,-3.091,-3.0926,-3.0926,-3.0962,-3.0995,-3.0951,-3.0955,-3.092,-3.0958,-3.1068,-3.0905,-3.0904,-3.0937,-3.1176,-3.1213,-3.1234,-3.1037,-3.1041,-3.1043,-3.1177,0,-3.0992,-3.1062,-3.1019,-3.1096,-3.1124,-3.1056,-3.1094,-3.1089,-3.1069,-3.1091,-3.1069,-3.1093,-3.1032,-3.1035,-3.1069,-3.1048,-3.1116,-3.1037,-3.1072,-3.1073,-3.1076,-3.1256,-3.1295,-3.1422,-3.1193,-3.1196,-3.1198,0,-3.1151,-3.1158,-3.1239,-3.1219,-3.1229,-3.1263,-3.1272,-3.1293,-3.1287,-3.127,-3.1276,-3.1233,-3.1276,-3.1205,-3.1264,-3.1212,-3.1224,-3.1216,-3.122,-3.1221,-3.1143,-3.1264,-3.1461,-3.148,-3.1224,-3.1222,-3.122,0,-3.129,-3.132,-3.1372,-3.1373,-3.1352,-3.1378,-3.137,-3.1361,-3.1372,-3.138,-3.1387,-3.14,-3.1408,-3.142,-3.1383,-3.1335,-3.1448,-3.1373,-3.1436,-3.1438,-3.1463,-3.1462,-3.1665,-3.147,-3.147,-3.1469,-3.1469,0,-3.1438,-3.1491,-3.1435,-3.1467,-3.1525,-3.1475,-3.1534,-3.1519,-3.1512,-3.1541,-3.1484,-3.1513,-3.1462,-3.1487,-3.1458,-3.1512,-3.1516,-3.1505,-3.1496,-3.151,-3.1512,-3.1517,-3.1507,-3.1474,-3.1473,-3.1472,-3.1471,0,-3.1603,-3.1568,-3.1621,-3.1596,-3.1592,-3.1635,-3.1615,-3.1645,-3.1622,-3.166,-3.1667,-3.1631,-3.1657,-3.1621,-3.1644,-3.1625,-3.17,-3.1678,-3.1702,-3.1695,-3.1761,-3.1756,-3.1975,-3.2002,-3.1789,-3.1791,-3.1793,0,-3.17,-3.1739,-3.1719,-3.1735,-3.173,-3.1756,-3.1767,-3.1721,-3.1735,-3.1733,-3.1764,-3.1785,-3.18,-3.1846,-3.1823,-3.184,-3.1819,-3.1895,-3.1821,-3.1835,-3.1822,-3.182,-3.1825,-3.191,-3.1913,-3.1915,-3.1916,0,-3.1877,-3.1858,-3.1875,-3.1888,-3.1903,-3.191,-3.1914,-3.193,-3.1882,-3.1901,-3.1927,-3.1939,-3.1963,-3.1986,-3.1998,-3.1991,-3.1947,-3.194,-3.1956,-3.197,-3.1983,-3.1978,-3.1743,-3.1935,-3.1933,-3.1932,-3.1931,-3.193,-3.2011,-3.2043,-3.2035,-3.2057,-3.2055,-3.206,-3.2088,-3.2069,-3.2089,-3.2104,-3.2076,-3.211,-3.2106,-3.2118,-3.2117,-3.2144,-3.2111,-3.2133,-3.2139,-3.2146,-3.2156,-3.1978,-3.2146,-3.2145,-3.2144,-3.2144,-3.2144,0,-3.2186,-3.2178,-3.2198,-3.2205,-3.2224,-3.218,-3.2182,-3.2201,-3.2231,-3.223,-3.2246,-3.2278,-3.23,-3.228,-3.2299,-3.2325,-3.2305,-3.2331,-3.2329,-3.2329,-3.2184,-3.2169,-3.2347,-3.2347,-3.2347,-3.2347,-3.2347,-3.2347,-3.2279,-3.2331,-3.2312,-3.2364,-3.2355,-3.2387,-3.2393,-3.2398,-3.2397,-3.2435,-3.2453,-3.244,-3.2432,-3.245,-3.247,-3.2463,-3.2473,-3.2507,-3.2494,-3.2359,-3.2339,-3.232,-3.2305,-3.2509,-3.251,-3.2637,-3.2638,-3.2639]},{"header":{"parameterUnit":"m.s-1","parameterCategory":1,"la1":30.2991,"la2":30.254,"lo1":-89.0895,"lo2":-89.0444,"dy":0.0017,"dx":0.0017,"nx":28,"ny":28,"refTime":"2025-11-04T09:00:00:Z","depth":0,"parameterNumber":3,"parameterNumberName":"V-component_of_WINDS"},"data":[0,0,0,0,0,0,0,0,0,0,0,0,0,0,0,0,0,0,0,0,0,0,0,0,0,0,0,0,0,0,0,0,0,0,0,0,0,0,0,0,0,0,0,0,0,0,0,0,0,0,0,0,0,0,0,0,0,0,0.8527,0.8526,0,0.8499,0.8498,0.8498,0.8524,0.8525,0.8526,0.8527,0.8494,0.8492,0.849,0,0,0,0,0,0,0,0,0,0,0,0,0,0.8599,0.8597,0.8527,0.8526,0.8526,0.8499,0.8498,0.8498,0.8523,0.8525,0.8526,0.8527,0.8494,0.8492,0.849,0,0,0,0,0,0,0,0,0,0,0,0,0,0.8569,0.8597,0.8527,0.8535,0.8536,0.8499,0.8498,0.8498,0.8523,0.8525,0.8526,0.8528,0.8495,0.8492,0.849,0.8441,0,0,0.8481,0.848,0,0,0,0,0,0,0,0,0.857,0.8566,0.8534,0.8535,0.8535,0.8516,0.8512,0.8479,0.8523,0.8528,0.8527,0.8529,0.85,0.8497,0.8488,0.8439,0.8438,0.8481,0.8479,0.8478,0.8477,0,0,0,0,0,0,0,0.8572,0.8567,0.8515,0.8534,0.8534,0.854,0.8537,0.8506,0.8505,0.8528,0.8529,0.8526,0.85,0.849,0.8487,0.8438,0.8481,0.8478,0.8477,0.8476,0.8348,0.8347,0,0,0,0,0,0,0.8574,0.8569,0.8516,0.8515,0.8557,0.8537,0.8534,0.8521,0.8506,0.8505,0.8525,0.8527,0.8494,0.849,0.8486,0.8428,0.8478,0.8475,0.8474,0.835,0.8348,0.8346,0,0,0,0,0,0,0.8575,0.8569,0.8517,0.8542,0.8536,0.8534,0.8519,0.8519,0.851,0.8503,0.8503,0.8515,0.8495,0.849,0.8452,0.8427,0.8474,0.8472,0.8352,0.8349,0.8347,0.8311,0,0,0,0,0,0,0.8577,0.8569,0.8552,0.8542,0.8535,0.8485,0.8517,0.8518,0.8505,0.8508,0.8494,0.8493,0.8496,0.8456,0.845,0.8424,0.8469,0.8354,0.8351,0.8348,0.8315,0.8308,0.8302,0,0,0,0,0,0.858,0.8542,0.855,0.8544,0.8513,0.8483,0.8479,0.8485,0.8503,0.8485,0.8481,0.8494,0.8432,0.8452,0.8445,0.8418,0.8356,0.8352,0.8348,0.8318,0.8309,0.8302,0,0,0,0,0,0,0.8546,0.854,0.855,0.8508,0.8496,0.8488,0.8465,0.8476,0.8457,0.8461,0.8467,0.8464,0.8424,0.8418,0.8441,0.8371,0.8396,0.8391,0.8376,0.8368,0.8362,0.8363,0.8467,0,0,0,0,0,0.8535,0.8513,0.8508,0.8471,0.8465,0.8466,0.8453,0.8459,0.8447,0.8441,0.8435,0.8421,0.8398,0.8383,0.8362,0.8315,0.8312,0.8293,0.8287,0.8281,0.8276,0.825,0.8242,0.8333,0.8333,0.8333,0,0,0.8509,0.8503,0.8488,0.8464,0.8456,0.8432,0.8461,0.8435,0.8417,0.8437,0.8401,0.8396,0.8381,0.8338,0.8319,0.8332,0.825,0.8277,0.8272,0.827,0.8245,0.8237,0.8229,0.8331,0.8331,0.8332,0,0,0.845,0.8444,0.8412,0.8404,0.8392,0.8393,0.8385,0.8376,0.8373,0.8338,0.8353,0.8331,0.8292,0.8281,0.827,0.8209,0.822,0.8202,0.8168,0.8143,0.8136,0.8129,0.8106,0.8098,0.8197,0.8197,0.8197,0,0.8418,0.8384,0.8394,0.8367,0.8355,0.8375,0.8342,0.8333,0.8314,0.8305,0.8321,0.8273,0.8264,0.8219,0.8205,0.8196,0.8186,0.8203,0.8136,0.813,0.8124,0.8102,0.8094,0.8195,0.8195,0.8195,0.8196,0,0.8347,0.8323,0.8299,0.8282,0.8268,0.8238,0.8242,0.8227,0.8235,0.8234,0.8198,0.8189,0.8166,0.8156,0.8162,0.8112,0.812,0.8136,0.8161,0.8113,0.8093,0.8084,0.8192,0.8193,0.8193,0.8194,0,0,0.8263,0.8253,0.8244,0.8237,0.8226,0.8207,0.8178,0.8158,0.8144,0.8131,0.8106,0.8074,0.8089,0.8077,0.8082,0.806,0.8011,0.8078,0.8078,0.8065,0.7955,0.7942,0.7932,0.802,0.8018,0.8017,0.7955,0,0.8202,0.8154,0.8162,0.8114,0.8092,0.8111,0.8086,0.8076,0.8075,0.8055,0.8054,0.8031,0.8053,0.8045,0.8025,0.8022,0.7989,0.8026,0.7995,0.7994,0.7996,0.7921,0.7907,0.785,0.7948,0.7946,0.7945,0,0.8125,0.811,0.8061,0.8054,0.8045,0.8022,0.8005,0.7986,0.7975,0.7976,0.7964,0.7974,0.7944,0.7972,0.7931,0.7956,0.7944,0.7941,0.7939,0.7934,0.7965,0.7913,0.7831,0.7822,0.7933,0.7934,0.7935,0,0.8067,0.8036,0.8002,0.7995,0.7987,0.797,0.7966,0.7957,0.7944,0.7929,0.7921,0.7902,0.789,0.7875,0.7879,0.7899,0.7836,0.7865,0.7835,0.7835,0.7819,0.7819,0.7732,0.7814,0.7814,0.7814,0.7815,0,0.7998,0.7966,0.7976,0.7955,0.792,0.7931,0.7896,0.7893,0.7885,0.7864,0.7879,0.7858,0.7866,0.7845,0.7848,0.7813,0.7808,0.7807,0.7808,0.7804,0.7804,0.7795,0.7798,0.7812,0.7813,0.7813,0.7813,0,0.7926,0.7932,0.7896,0.7892,0.7891,0.7865,0.7861,0.7841,0.7842,0.7815,0.7809,0.781,0.7786,0.779,0.7763,0.7765,0.7721,0.7728,0.7725,0.7726,0.7695,0.7697,0.7597,0.7584,0.7676,0.7675,0.7675,0,0.7881,0.7857,0.7851,0.7839,0.7833,0.7813,0.7801,0.781,0.7797,0.7784,0.7765,0.7743,0.7726,0.7688,0.7685,0.7665,0.767,0.7637,0.7667,0.7665,0.7668,0.7669,0.7666,0.763,0.7629,0.7628,0.7627,0,0.7798,0.7803,0.7786,0.777,0.7756,0.7743,0.7732,0.772,0.7729,0.7713,0.769,0.7677,0.7651,0.7629,0.761,0.7604,0.7616,0.7618,0.761,0.7605,0.7604,0.7603,0.7707,0.762,0.762,0.7621,0.7621,0.7622,0.7737,0.7718,0.7711,0.7691,0.7685,0.7674,0.7655,0.7655,0.7637,0.7617,0.7624,0.7598,0.7588,0.7565,0.7557,0.7536,0.7548,0.7536,0.7533,0.7529,0.7525,0.761,0.7533,0.7533,0.7533,0.7533,0.7533,0,0.7655,0.7652,0.7634,0.7619,0.7604,0.762,0.7608,0.7594,0.7571,0.7562,0.7546,0.7519,0.7498,0.7496,0.7475,0.7459,0.7464,0.7453,0.7453,0.7452,0.7516,0.7525,0.7449,0.7449,0.7449,0.7449,0.7449,0.7449,0.761,0.7577,0.7581,0.7545,0.7542,0.7518,0.751,0.75,0.7493,0.7463,0.7447,0.7446,0.7439,0.7419,0.74,0.74,0.7391,0.7378,0.7379,0.7439,0.7447,0.7455,0.7463,0.7376,0.7376,0.7316,0.7316,0.7315]}]]